Weather in Romashki

Russia / Saint-Petersburg and Leningrad Oblast     60°43′05″N   29°48′22″E
temp.,
°C
wind,
m/s
gust,
m/s
humid.,
%
clouds,
%
prec.,
mm/h
press.,
hPa
HPBL,
m
17 may, tue
tue1700:00+6nnw31088100 0.1 1011376
03:00+5nnw31088100 0.1 1011456
06:00+4nw3985100 0.0 1012513
09:00+6nnw5772100 0.0 1013972
12:00+6n4674100 0.0 10151146
15:00+6nne4775100 0.1 10161021
18:00+6nne4875100 0.0 10181006
21:00+6n377375 0.1 1019860
18 may, wed
wed1800:00+5nnw377882 0.0 1020421
03:00+3nw2688100 0.0 1020140
06:00+5w2677100 0.0 1020218
09:00+8wnw4765100 0.0 1019911
12:00+12w594376 0.0 10171612
15:00+15wnw5103968 0.0 10152101
18:00+15wnw394499 0.0 10142136
21:00+10w1169100 0.0 101422
19 may, thu
thu1900:00+7n257399 0.0 1015111
03:00+5n27775 0.0 1017165
06:00+4nne2778100 0.0 1019334
09:00+8nne3452100 0.0 1020907
12:00+11n2335100 0.0 10201682
15:00+14nnw232899 0.0 10202041
18:00+13n232964 0.0 10191987
21:00+8se2359100 0.0 102060
20 may, fri
fri2000:00+6se225565 0.0 102032
03:00+4ese11685 0.0 102010
06:00+5ese136271 0.0 1019101
09:00+10ese3442100 0.0 1019700
12:00+13ese4439100 0.0 10171501
15:00+12e5541100 0.0 10171240
18:00+9e3751100 0.0 1016569
21:00+7ene2761100 0.0 1016213
21 may, sat
sat2100:00+4ene3117137 0.0 1016294
03:00+3ene297746 0.0 1016227
06:00+4ene397415 0.0 1016325
09:00+9e58535 0.0 1015725
12:00+11e57441 0.0 10141167
15:00+13e55394 0.0 10131516
18:00+12e45355 0.0 10121227
21:00+7ene27575 0.0 1012178